Weather History for Indianapolis, IN

Change the Weather History Date:

Wednesday, March 19, 2014

  Actual Average (KEYE) Record (KEYE)
Temperature  
Mean Temperature 44 °F 44 °F  
Max Temperature 52 °F 53 °F 81 °F (2012)
Min Temperature 35 °F 35 °F 25 °F (2006)
Degree Days  
Heating Degree Days 22 21  
Month to date heating degree days 471  
Since 1 July heating degree days 4596  
Cooling Degree Days 0 0  
Month to date cooling degree days 0  
Year to date cooling degree days 0  
Moisture  
Dew Point 38 °F    
Average Humidity 75    
Maximum Humidity 81    
Minimum Humidity 67    
Precipitation  
Precipitation 0.01 in 0.12 in 1.10 in (2008)
Month to date precipitation 1.69  
Year to date precipitation 6.03  
Sea Level Pressure  
Sea Level Pressure 29.80 in    
Wind  
Wind Speed 16 mph (SW)    
Max Wind Speed 25 mph    
Max Gust Speed 36 mph    
Visibility 8 miles    
Events Rain    
T = Trace of Precipitation, MM = Missing Value Source: NWS Daily Summary

Daily Weather History Graph

Daily Weather History Graph

Search for Another Location

Airport:

Trip Planner

Search our weather history database for the weather conditions in past years. The results will help you decide how hot, cold, wet, or windy it might be!

Date:

Astronomy

Mar. 19, 2014 Rise Set
Actual Time 7:50 AM EDT 7:56 PM EDT
Civil Twilight 7:23 AM EDT 8:23 PM EDT
Nautical Twilight 6:51 AM EDT 8:54 PM EDT
Astronomical Twilight 6:19 AM EDT 9:26 PM EDT
Moon 11:13 PM EDT (3/19) 9:15 AM EDT (3/19)
Length of Visible Light 13h 00m
Length of Day
12h 06m
Waning Gibbous, 91% of the Moon is Illuminated
Mar 19
Waning Gibbous
Mar 23
Last Quarter
Mar 30
New
Apr 7
First Quarter
Apr 15
Full

Hourly Weather History & Observations

Time (EDT) Temp. Windchill Dew Point Humidity Pressure Visibility Wind Dir Wind Speed Gust Speed Precip Events Conditions
12:15 AM 47.5 °F - 39.0 °F 72% 29.79 in 10.0 mi South 13.8 mph - N/A   Overcast
12:35 AM 47.3 °F - 39.0 °F 73% 29.78 in 10.0 mi South 11.5 mph - N/A   Mostly Cloudy
12:55 AM 46.9 °F - 39.2 °F 74% 29.78 in 10.0 mi South 13.8 mph - N/A   Mostly Cloudy
1:15 AM 46.8 °F - 39.2 °F 75% 29.78 in 10.0 mi South 12.7 mph 17.3 mph N/A   Overcast
1:35 AM 47.3 °F - 39.6 °F 74% 29.78 in 10.0 mi South 10.4 mph 17.3 mph N/A   Overcast
1:55 AM 47.5 °F - 39.7 °F 75% 29.78 in 10.0 mi South 9.2 mph - N/A   Overcast
2:15 AM 48.0 °F - 40.1 °F 74% 29.77 in 10.0 mi South 13.8 mph 18.4 mph N/A   Overcast
2:35 AM 48.2 °F - 40.1 °F 74% 29.76 in 10.0 mi South 11.5 mph 20.7 mph N/A   Overcast
2:55 AM 48.2 °F - 40.1 °F 74% 29.75 in 10.0 mi South 13.8 mph 18.4 mph N/A   Overcast
3:15 AM 48.2 °F - 39.7 °F 73% 29.74 in 10.0 mi South 16.1 mph 20.7 mph N/A   Overcast
3:35 AM 47.3 °F - 39.6 °F 74% 29.74 in 10.0 mi South 16.1 mph 24.2 mph N/A   Mostly Cloudy
3:55 AM 47.5 °F - 39.6 °F 74% 29.72 in 10.0 mi South 13.8 mph 21.9 mph N/A   Mostly Cloudy
4:15 AM 46.8 °F - 39.4 °F 75% 29.71 in 10.0 mi South 15.0 mph 21.9 mph N/A   Mostly Cloudy
4:35 AM 46.9 °F - 39.6 °F 76% 29.71 in 10.0 mi South 13.8 mph 19.6 mph N/A   Mostly Cloudy
4:55 AM 47.1 °F - 39.6 °F 75% 29.72 in 10.0 mi SSW 11.5 mph - N/A   Overcast
5:15 AM 46.4 °F 41.1 °F 40.1 °F 79% 29.71 in 7.0 mi South 11.5 mph - 0.01 in Rain Light Rain
5:35 AM 46.0 °F 41.0 °F 40.6 °F 81% 29.71 in 10.0 mi South 10.4 mph - 0.01 in   Overcast
5:55 AM 46.6 °F - 40.6 °F 80% 29.70 in 10.0 mi South 12.7 mph - 0.01 in   Overcast
6:15 AM 46.8 °F - 40.3 °F 78% 29.70 in 10.0 mi South 13.8 mph 18.4 mph N/A   Overcast
6:35 AM 46.8 °F - 40.1 °F 78% 29.70 in 10.0 mi South 15.0 mph 20.7 mph N/A   Overcast
6:55 AM 46.8 °F - 40.1 °F 78% 29.69 in 10.0 mi South 11.5 mph 18.4 mph N/A   Overcast
7:15 AM 46.9 °F - 40.1 °F 77% 29.70 in 10.0 mi South 13.8 mph - N/A   Mostly Cloudy
7:35 AM 47.3 °F - 40.3 °F 77% 29.70 in 10.0 mi South 13.8 mph 18.4 mph N/A   Overcast
7:55 AM 47.3 °F - 40.3 °F 77% 29.70 in 10.0 mi South 15.0 mph 19.6 mph N/A   Overcast
8:15 AM 47.5 °F - 40.3 °F 76% 29.69 in 10.0 mi South 11.5 mph 19.6 mph N/A   Overcast
8:35 AM 48.2 °F - 40.8 °F 76% 29.70 in 10.0 mi SSW 13.8 mph 21.9 mph N/A   Overcast
8:55 AM 49.3 °F - 41.4 °F 74% 29.70 in 10.0 mi SSW 16.1 mph 26.5 mph N/A   Overcast
9:15 AM 49.6 °F - 41.9 °F 75% 29.69 in 10.0 mi SSW 21.9 mph 29.9 mph N/A   Overcast
9:35 AM 50.4 °F - 42.4 °F 74% 29.69 in 10.0 mi SSW 19.6 mph 27.6 mph N/A   Overcast
9:55 AM 51.3 °F - 43.0 °F 73% 29.69 in 10.0 mi SSW 23.0 mph 27.6 mph N/A   Overcast
10:15 AM 50.5 °F - 42.4 °F 74% 29.70 in 10.0 mi SSW 23.0 mph 27.6 mph N/A   Overcast
10:35 AM 50.7 °F - 42.6 °F 74% 29.70 in 10.0 mi SSW 13.8 mph 27.6 mph N/A   Overcast
10:55 AM 51.1 °F - 43.0 °F 74% 29.70 in 10.0 mi SSW 17.3 mph 23.0 mph N/A   Overcast
11:15 AM 51.1 °F - 42.8 °F 73% 29.71 in 10.0 mi SW 17.3 mph 24.2 mph N/A   Overcast
11:35 AM 50.9 °F - 42.8 °F 74% 29.71 in 10.0 mi SW 15.0 mph 24.2 mph N/A   Overcast
11:55 AM 52.2 °F - 43.0 °F 71% 29.71 in 10.0 mi SSW 19.6 mph 26.5 mph N/A   Overcast
12:15 PM 52.5 °F - 43.2 °F 70% 29.71 in 10.0 mi SW 17.3 mph 23.0 mph N/A   Overcast
12:35 PM 51.8 °F - 42.3 °F 70% 29.71 in 10.0 mi SW 20.7 mph 26.5 mph N/A   Overcast
12:55 PM 52.2 °F - 42.3 °F 69% 29.71 in 10.0 mi WSW 18.4 mph 25.3 mph N/A   Overcast
1:15 PM 52.0 °F - 41.9 °F 69% 29.72 in 10.0 mi WSW 18.4 mph 28.8 mph N/A   Overcast
1:35 PM 51.6 °F - 41.5 °F 68% 29.73 in 10.0 mi WSW 17.3 mph 32.2 mph N/A   Overcast
1:55 PM 50.0 °F - 41.0 °F 71% 29.74 in 10.0 mi West 20.7 mph 26.5 mph N/A   Overcast
2:15 PM 49.5 °F - 41.0 °F 73% 29.75 in 10.0 mi WSW 24.2 mph 32.2 mph N/A   Overcast
2:35 PM 49.5 °F - 41.2 °F 73% 29.76 in 7.0 mi WSW 21.9 mph 28.8 mph N/A   Overcast
2:55 PM 46.9 °F - 39.7 °F 76% 29.77 in 5.0 mi WSW 25.3 mph 34.5 mph N/A   Haze
3:15 PM 45.0 °F 36.4 °F 38.8 °F 79% 29.78 in 4.0 mi WSW 23.0 mph 33.4 mph N/A   Haze
3:35 PM 44.6 °F 35.9 °F 38.7 °F 80% 29.79 in 4.0 mi West 23.0 mph 32.2 mph N/A   Haze
3:55 PM 43.9 °F 35.9 °F 37.4 °F 78% 29.80 in 4.0 mi West 18.4 mph 34.5 mph N/A   Haze
4:15 PM 43.2 °F 33.6 °F 36.9 °F 78% 29.81 in 4.0 mi West 25.3 mph 34.5 mph N/A   Haze
4:35 PM 42.6 °F 34.9 °F 36.5 °F 79% 29.83 in 3.0 mi West 16.1 mph 29.9 mph N/A   Haze
4:55 PM 42.3 °F 32.8 °F 35.8 °F 78% 29.84 in 4.0 mi West 23.0 mph 29.9 mph N/A   Haze
5:15 PM 41.4 °F 31.4 °F 35.4 °F 79% 29.85 in 3.0 mi West 24.2 mph 29.9 mph N/A   Haze
5:35 PM 41.0 °F 32.2 °F 34.3 °F 77% 29.86 in 4.0 mi West 18.4 mph 34.5 mph N/A   Haze
5:55 PM 41.0 °F 31.4 °F 34.0 °F 76% 29.88 in 5.0 mi West 21.9 mph 29.9 mph N/A   Haze
6:15 PM 40.6 °F 31.4 °F 34.0 °F 77% 29.89 in 5.0 mi West 19.6 mph 34.5 mph N/A   Haze
6:35 PM 40.5 °F 31.5 °F 33.8 °F 77% 29.91 in 4.0 mi West 18.4 mph 31.1 mph N/A   Haze
6:55 PM 40.3 °F 31.9 °F 33.8 °F 78% 29.92 in 4.0 mi West 16.1 mph 24.2 mph N/A   Haze
7:15 PM 40.1 °F 30.7 °F 33.1 °F 76% 29.93 in 4.0 mi West 19.6 mph 24.2 mph N/A   Haze
7:35 PM 39.4 °F 29.5 °F 32.5 °F 76% 29.95 in 4.0 mi West 20.7 mph 26.5 mph N/A   Haze
7:55 PM 39.2 °F 29.0 °F 32.0 °F 75% 29.95 in 7.0 mi West 21.9 mph 27.6 mph N/A   Overcast
8:15 PM 38.7 °F 28.3 °F 31.8 °F 76% 29.96 in 7.0 mi West 21.9 mph 28.8 mph N/A   Overcast
8:35 PM 38.5 °F 28.9 °F 31.1 °F 75% 29.97 in 7.0 mi West 18.4 mph 28.8 mph N/A   Overcast
8:55 PM 37.8 °F 29.0 °F 31.1 °F 77% 29.98 in 7.0 mi West 15.0 mph 26.5 mph N/A   Overcast
9:15 PM 37.0 °F 27.7 °F 30.4 °F 77% 29.99 in 7.0 mi West 16.1 mph 20.7 mph N/A   Overcast
9:35 PM 36.7 °F 26.3 °F 30.7 °F 79% 29.99 in 7.0 mi West 19.6 mph 25.3 mph N/A   Overcast
9:55 PM 36.0 °F 25.0 °F 29.1 °F 76% 30.00 in 7.0 mi West 20.7 mph 35.7 mph N/A   Overcast
10:15 PM 35.6 °F 24.2 °F 28.2 °F 75% 30.02 in 7.0 mi West 21.9 mph 28.8 mph N/A   Overcast
10:35 PM 35.8 °F 24.8 °F 27.5 °F 72% 30.02 in 10.0 mi West 20.7 mph 26.5 mph N/A   Overcast
10:55 PM 35.8 °F 25.7 °F 27.3 °F 71% 30.03 in 10.0 mi West 17.3 mph 24.2 mph N/A   Overcast
11:15 PM 36.0 °F 28.0 °F 27.3 °F 71% 30.03 in 10.0 mi West 11.5 mph 20.7 mph N/A   Overcast
11:35 PM 36.0 °F 27.1 °F 27.5 °F 71% 30.04 in 10.0 mi West 13.8 mph 21.9 mph N/A   Overcast
11:55 PM 35.8 °F 26.5 °F 25.7 °F 67% 30.04 in 10.0 mi WNW 15.0 mph 26.5 mph N/A   Overcast